Volver al catálogo

KUIPER-00602

ActivoComunicacionesLEO
NORAD 69286·PAYLOAD·🇺🇸 United States

Lanzado May 29, 2026 desde Vandenberg Space Force Base

Loading…

Próximos Pases (próximas 24 horas)

TLE

ActualizadoSource: CelesTrak SupGP

Época: Sep 15, 2026, 02:04 UTC

1 69286C 26118V   26258.08657407  .00002708  00000+0  35441-3 0  2583
2 69286  51.9023 355.5471 0000576 194.6978  22.5407 14.79930719    16

Sigue KUIPER-00602 en tiempo real con AllMySat

Download on the App Store